This is the latest recevied weather packets stored in our database for station/object JS1SZZ-13. If no packets are shown the sender has not sent any weather packets the latest 10 day(s).
| Time | Temp. | Humidity | Pressure | Rain* | Wind** | Luminosity | Snow |
|---|---|---|---|---|---|---|---|
| 1787480275 | 22.78° C | 92% | 1015.6 hPa | 3.56 mm | - | - | - |
| 1787479301 | 22.78° C | 92% | 1015.7 hPa | 7.62 mm | - | - | - |
| 1787478400 | 22.78° C | 91% | 1015.3 hPa | 5.33 mm | - | - | - |
| 1787477501 | 22.78° C | 91% | 1015.1 hPa | 4.57 mm | - | - | - |
| 1787476601 | 23.89° C | 90% | 1015 hPa | 3.81 mm | - | - | - |
| 1787475900 | 24.44° C | 89% | 1015 hPa | 0.51 mm | - | - | - |
| 1787475000 | 25° C | 84% | 1014.5 hPa | 0.51 mm | - | - | - |
| 1787474099 | 25.56° C | 79% | 1014.5 hPa | 0 mm | - | - | - |
| 1787473200 | 26.11° C | 76% | 1014.7 hPa | 0 mm | - | - | - |
| 1787472300 | 26.11° C | 75% | 1014.8 hPa | 0 mm | - | - | - |
| 1787471401 | 26.11° C | 74% | 1014.7 hPa | 0 mm | - | - | - |
| 1787470500 | 26.11° C | 74% | 1014.7 hPa | 0 mm | - | - | - |
| 1787469599 | 26.67° C | 73% | 1014.5 hPa | 0 mm | - | - | - |
| 1787468700 | 27.22° C | 73% | 1014.4 hPa | 0 mm | - | - | - |
| 1787467801 | 27.22° C | 75% | 1014.4 hPa | 0 mm | - | - | - |
| 1787466900 | 27.78° C | 71% | 1014.2 hPa | 0 mm | - | - | - |
| 1787466000 | 27.78° C | 72% | 1014.4 hPa | 0 mm | - | - | - |
| 1787465099 | 27.78° C | 70% | 1014.6 hPa | 0 mm | - | - | - |
| 1787464201 | 27.78° C | 71% | 1014.6 hPa | 0 mm | - | - | - |
| 1787463300 | 27.22° C | 74% | 1014.6 hPa | 0 mm | - | - | - |
| 1787462399 | 27.22° C | 71% | 1014.7 hPa | 0 mm | - | - | - |
| 1787461500 | 28.33° C | 70% | 1014.8 hPa | 0 mm | - | - | - |
| 1787460601 | 28.33° C | 66% | 1014.7 hPa | 0 mm | - | - | - |
| 1787459700 | 28.33° C | 64% | 1014.8 hPa | 0 mm | - | - | - |
| 1787458801 | 28.33° C | 66% | 1015.1 hPa | 0 mm | - | - | - |
* Rain latest hour (hover to see other rain measurements)
** Current wind speed in m/s (hover to see current wind gust speed)